FENGYUN 1C DEB

Satellite information

Favourite Embed

Satellite Type and Status

DEBRISIN ORBIT

Key statistics

Satellite FENGYUN 1C DEB at a glance.

Uptime

9496

Days in orbit

Revolutions

≈ 14.8

Per day

Orbit

SSO

Sun Synchronous Orbit

Inclination

98.9

Latest

Satellite identification and parameters

Extended collection of information and parameters for FENGYUN 1C DEB.

Object identification

Identified? True

Debris? True

Object name: FENGYUN 1C DEB

International designator: 1999-025CBV

Object number (NORAD): 31663

Object ID (CCSDS): 31663

Country: PEOPLES REPUBLIC OF CHINA (PRC)

Current information (Y/N): Y

RCS size: SMALL

Orbital parameters

Period: 97.625 minutes

Inclination: 98.8574 deg

SMA: 7023.177 km

Apoapsis: 781.365 km

Periapsis: 508.72 km

RAAN: 15.3213 deg

Eccentricy: 0.0194104

Argument of periapsis: 204.3933 deg

Mean anomaly: 154.7994 deg

Mean motion: 14.75034976 rev/day

Mean motion (dot): 0.00001969 rev/day2

B* drag term: 0.00022378 1/REarth

Two-line elements (TLE)

Creation date: May 8, 2025, 3:01 a.m.

Reference frame: TEME

Reference center: EARTH

Epoch: May 7, 2025, 10:43 p.m. UTC

TLE line 0: 0 FENGYUN 1C DEB

TLE line 1: 1 31663U 99025CBV 25127.94682555 .00001969 00000-0 22378-3 0 9995

TLE line 2: 2 31663 98.8574 15.3213 0194104 204.3933 154.7994 14.75034976960538

Live tracking on map

Real-time ground track for satellite FENGYUN 1C DEB.

In-orbit conjunctions

A list of the most updated potential collisions computed for object FENGYUN 1C DEB.

Target Orbit TCA Probability of collision Miss distance Type
CZ-4 DEB SSO 2024-11-16 16:13:42 0.0006526556 835.0 (m) DEBRIS
FENGYUN 1C DEB SSO 2024-11-14 05:02:37 0.0003122787 555.0 (m) DEBRIS

Associated space launch

Chinese polar orbiting meteorological satellite

FENGYUN 1C DEB was lifted into orbit during the mission ‘Long March 4B | Feng Yun 1C’, on board a Long March 4B space rocket.

The launch took place on May 10, 1999, 1:33 a.m. from Launch Complex 7.

For more information about the launch, click the button.

Launch to space Long March 4B | Feng Yun 1C
Long March 4B | Feng Yun 1C

Agency: N/A

Status: Launch Successful

Launch date: May 10, 1999, 1:33 a.m. UTC

Rocket: Long March 4B

Launch pad: Launch Complex 7

Location: Taiyuan Satellite Launch Center, People's Republic of China

...

Latest news about this satellite

There are no fresh news available about this satellite. Check back as we update our databases every day.


Newsletter sign-up

Weekly statistics, charts and insights to help you stay on top of the space industry.